STARLINK-32589, 62183

Orbit data source: Space-Track

STARLINK-32589, 62183 is a payload satellite owned by SpaceX/Seattle (US) in LEO that was launched on Sat, 30 Nov 2024 UTC via an FALCON 9 launch vehicle from the Air Force Western Test Range (AFWTR). Payload-class satellites include a variety of spacecraft equipped with specific instruments for various scientific and technological missions. These include communications satellites like Starlink; space stations such as the ISS; scientific satellites like the Hubble; Earth observation satellites from companies like Planet Labs, Umbra, and HawkEye 360; GPS; miniature CubeSats for education and research; and military/defense satellites.

Loading next visibility...
Identifier
62183, 2024-225W
Orbit
LEO
Country
Flag of USUS
Related business
Manufacturer
SpaceX/Seattle
Mission
Operational Commercial Communications
Bus & Motor
STARLINK V2M, Unknown motor
Mass
730 kg wet, ~700 kg dry
Launch date (UTC)
2024-11-30 (1 year ago)
Launch vehicle
FALCON 9
Launch site
Air Force Western Test Range (AFWTR)
Object type
Payload
Rocket body
Debris
Shape & HBR
Box + 2 Pan, 17.7 m
Radar Cross Section
33.884 m², Large (>1 m²)

Expand to show TLE details & history
Last TLE update: 15 hours ago

TLE from 15 hours ago
0 STARLINK-32589
1 62183U 24225W   26062.70615424  .00002783  00000-0  24088-3 0  9995
2 62183  70.0035 179.7485 0002960 265.5685  94.5136 14.98333182 68972
Epoch: 2026-03-03T16:56Z
TLE epoch observation values (Epoch: 2026-03-03T16:56:51.726Z)
Latitude
-0.00001°
Longitude
124.0516°
Altitude
574.633 km
Speed
7.574 km/s
True Right ascension
11h 58m 59s
True Declination
0° 00' 00"
Sunlit
Object was in full shadow at epoch
Visualization orbit readout
Latitude
Unknown
Longitude
Unknown
Altitude
Unknown
Speed
Unknown
Apparent Right ascension
Unknown
Apparent Declination
Unknown
Sunlit
N/A
Visualization observer readout
Local Sidereal Time
11:19:00
Azimuth
Unknown
Elevation
Unknown
Doppler factor
Unknown
Orbital elements
Apogee altitude
572.051 km
Perigee altitude
567.937 km
Semi-major axis
6,948.131 km
Eccentricity
0.0003
Inclination
70.0035°
RAAN
179.7485°
Arg. of periapsis
265.5685°
True anomaly
94.54741°
Mean anomaly
94.5136°
Eccentric anomaly
94.53051°
Mean motion
3.7475 °/min
Orbital period
96.06 mins
BSTAR
0.00024088
Loading maneuver chart data...
Computing Atmospheric mass density...
Loading historical data...
Loading historical data...
Loading historical data...
Loading historical data...
Loading historical data...
Loading historical data...
Loading historical data...

Documentation

Showing up to 5 results
|